Total_Precipitation_Accumulation
0.76 0.83 0.89 1.12 1.31 1.39 1.48 1.57 1.67 1.73 1.85 1.89 1.88 1.87 1.74 1.54 1.36 1.23 1.12 1.06 1.05 1.10 1.04 0.94 0.94 0.94 0.87 0.78 0.73 0.70 0.65 0.60 0.59 0.60 0.51 0.44 0.42 0.39 0.34 0.33 0.34 0.32 0.31
0.62 0.71 0.76 0.86 1.03 1.16 1.33 1.50 1.61 1.73 1.73 1.73 1.87 1.99 2.09 1.93 1.62 1.45 1.33 1.20 1.17 1.18 1.14 1.10 1.07 1.04 1.03 1.01 0.97 0.94 0.89 0.82 0.82 0.82 0.78 0.62 0.47 0.37 0.33 0.35 0.36 0.35 0.35
0.48 0.55 0.62 0.77 0.90 1.01 1.18 1.42 1.56 1.69 1.72 1.76 1.99 2.16 2.28 2.15 1.85 1.47 1.29 1.27 1.29 1.31 1.24 1.21 1.23 1.17 1.11 1.07 1.06 1.05 1.04 0.98 0.94 0.94 1.00 0.85 0.59 0.40 0.32 0.29 0.30 0.33 0.36
0.40 0.45 0.54 0.63 0.74 0.89 1.02 1.15 1.33 1.52 1.69 1.75 1.80 1.88 1.96 1.93 1.72 1.58 1.47 1.48 1.49 1.48 1.41 1.36 1.34 1.30 1.24 1.13 1.11 1.10 1.06 1.04 0.99 0.95 0.88 0.81 0.67 0.62 0.47 0.32 0.30 0.32 0.33
0.42 0.44 0.52 0.62 0.66 0.77 0.98 1.08 1.15 1.35 1.56 1.68 1.74 1.85 1.83 1.85 1.94 1.87 1.75 1.64 1.60 1.57 1.51 1.45 1.43 1.36 1.30 1.24 1.24 1.21 1.18 1.12 1.06 1.01 0.95 0.93 0.80 0.68 0.65 0.49 0.34 0.35 0.36
0.52 0.55 0.59 0.61 0.61 0.65 0.85 1.06 1.08 1.17 1.32 1.53 1.72 1.78 1.71 1.75 1.82 1.82 1.76 1.72 1.71 1.68 1.58 1.49 1.43 1.37 1.33 1.30 1.29 1.32 1.28 1.24 1.18 1.14 1.08 1.07 1.01 0.86 0.82 0.73 0.51 0.43 0.39
0.52 0.57 0.60 0.55 0.55 0.59 0.70 0.88 1.01 1.12 1.18 1.33 1.48 1.63 1.69 1.69 1.73 1.76 1.72 1.64 1.56 1.48 1.47 1.47 1.43 1.39 1.32 1.30 1.31 1.33 1.30 1.26 1.21 1.15 1.12 1.11 1.07 0.99 0.97 0.93 0.73 0.58 0.47
0.42 0.46 0.53 0.55 0.55 0.56 0.61 0.66 0.73 0.82 0.88 0.97 1.08 1.21 1.40 1.50 1.48 1.54 1.55 1.51 1.43 1.41 1.43 1.43 1.44 1.45 1.43 1.38 1.36 1.35 1.33 1.31 1.22 1.11 1.06 1.02 0.98 0.98 1.00 1.00 0.99 0.91 0.70
0.43 0.44 0.51 0.54 0.57 0.59 0.62 0.62 0.62 0.66 0.76 0.79 0.85 0.89 1.04 1.18 1.24 1.31 1.30 1.24 1.22 1.29 1.31 1.31 1.33 1.34 1.36 1.35 1.35 1.32 1.28 1.28 1.25 1.18 1.11 0.99 0.89 0.88 0.90 0.94 1.01 1.12 1.02
0.43 0.42 0.48 0.51 0.53 0.58 0.61 0.60 0.59 0.60 0.70 0.77 0.82 0.83 0.87 0.94 1.07 1.16 1.10 1.07 1.08 1.12 1.16 1.15 1.16 1.18 1.19 1.22 1.26 1.22 1.18 1.17 1.13 1.12 1.12 1.07 0.98 0.94 0.95 1.00 1.06 1.15 1.20
0.44 0.45 0.48 0.52 0.55 0.59 0.59 0.56 0.59 0.60 0.64 0.69 0.70 0.71 0.74 0.79 0.85 0.93 0.96 0.95 0.98 0.97 0.98 1.00 1.01 1.01 1.03 1.07 1.11 1.08 1.05 1.08 1.07 1.06 1.08 1.10 1.07 1.08 1.06 1.10 1.17 1.23 1.31
0.44 0.43 0.44 0.48 0.53 0.54 0.50 0.48 0.54 0.57 0.61 0.64 0.62 0.62 0.64 0.67 0.70 0.73 0.79 0.80 0.83 0.86 0.88 0.90 0.91 0.87 0.85 0.89 0.94 0.96 0.95 0.96 0.97 1.00 1.05 1.08 1.09 1.14 1.15 1.18 1.22 1.25 1.25
0.32 0.32 0.33 0.35 0.36 0.36 0.36 0.40 0.44 0.42 0.44 0.47 0.46 0.47 0.50 0.53 0.59 0.62 0.63 0.66 0.71 0.76 0.79 0.80 0.82 0.83 0.81 0.82 0.83 0.84 0.85 0.86 0.86 0.87 0.90 0.92 0.97 1.03 1.04 1.08 1.13 1.14 1.15
0.24 0.25 0.26 0.25 0.26 0.27 0.29 0.32 0.31 0.32 0.35 0.35 0.34 0.37 0.40 0.43 0.47 0.50 0.49 0.50 0.53 0.59 0.63 0.68 0.72 0.72 0.74 0.77 0.80 0.82 0.81 0.80 0.79 0.79 0.81 0.83 0.88 0.93 0.99 1.04 1.05 1.06 1.09
0.17 0.20 0.21 0.21 0.22 0.23 0.23 0.23 0.26 0.32 0.37 0.38 0.36 0.35 0.36 0.38 0.41 0.43 0.43 0.42 0.43 0.43 0.46 0.52 0.60 0.65 0.67 0.71 0.75 0.78 0.80 0.80 0.80 0.83 0.87 0.91 1.01 1.03 0.99 0.96 0.94 0.95 0.99
0.12 0.13 0.15 0.16 0.17 0.18 0.20 0.24 0.29 0.37 0.43 0.46 0.40 0.36 0.36 0.36 0.34 0.33 0.33 0.33 0.34 0.35 0.38 0.43 0.48 0.55 0.61 0.77 0.76 0.71 0.73 0.80 0.84 0.86 0.86 0.89 0.99 0.97 0.96 0.90 0.86 0.87 0.94
0.09 0.09 0.10 0.12 0.14 0.18 0.25 0.32 0.37 0.44 0.47 0.50 0.45 0.39 0.35 0.34 0.31 0.29 0.29 0.31 0.34 0.37 0.40 0.42 0.46 0.52 0.65 0.81 0.78 0.81 0.75 0.77 0.82 0.84 0.82 0.78 0.75 0.77 0.69 0.75 0.80 0.80 0.80
0.05 0.05 0.06 0.07 0.09 0.14 0.23 0.31 0.37 0.49 0.51 0.51 0.49 0.47 0.46 0.46 0.48 0.48 0.49 0.50 0.50 0.51 0.55 0.60 0.63 0.67 0.76 0.82 0.73 0.70 0.65 0.69 0.71 0.69 0.67 0.63 0.58 0.56 0.57 0.60 0.66 0.58 0.55
0.03 0.03 0.04 0.05 0.05 0.08 0.14 0.23 0.35 0.50 0.62 0.67 0.66 0.66 0.68 0.72 0.76 0.78 0.77 0.78 0.79 0.79 0.76 0.73 0.70 0.66 0.67 0.67 0.62 0.57 0.53 0.53 0.53 0.51 0.50 0.50 0.47 0.54 0.61 0.56 0.52 0.48 0.46
0.07 0.05 0.05 0.07 0.09 0.12 0.18 0.30 0.47 0.61 0.71 0.75 0.78 0.81 0.86 0.91 0.88 0.87 0.83 0.76 0.71 0.70 0.69 0.67 0.64 0.58 0.52 0.47 0.42 0.40 0.37 0.37 0.35 0.33 0.34 0.40 0.41 0.50 0.57 0.50 0.47 0.44 0.39
0.17 0.17 0.18 0.21 0.22 0.25 0.34 0.47 0.58 0.67 0.70 0.70 0.71 0.74 0.72 0.72 0.70 0.67 0.63 0.58 0.53 0.47 0.43 0.39 0.36 0.33 0.30 0.30 0.29 0.29 0.27 0.28 0.30 0.30 0.28 0.30 0.39 0.44 0.47 0.47 0.41 0.41 0.44
0.22 0.29 0.34 0.37 0.37 0.40 0.46 0.52 0.54 0.54 0.52 0.49 0.47 0.44 0.39 0.35 0.34 0.35 0.35 0.33 0.31 0.27 0.24 0.21 0.19 0.17 0.17 0.19 0.22 0.26 0.29 0.31 0.30 0.28 0.27 0.29 0.40 0.45 0.45 0.42 0.42 0.47 0.49
0.09 0.14 0.20 0.24 0.25 0.25 0.27 0.29 0.26 0.23 0.19 0.16 0.14 0.13 0.11 0.09 0.09 0.09 0.09 0.12 0.15 0.15 0.14 0.14 0.14 0.14 0.14 0.17 0.21 0.25 0.30 0.34 0.33 0.30 0.33 0.35 0.39 0.41 0.40 0.41 0.44 0.44 0.41
0.03 0.04 0.06 0.07 0.07 0.08 0.08 0.09 0.07 0.05 0.04 0.03 0.03 0.03 0.03 0.03 0.04 0.04 0.05 0.06 0.08 0.10 0.11 0.13 0.13 0.14 0.14 0.15 0.19 0.23 0.28 0.35 0.36 0.35 0.36 0.38 0.38 0.38 0.38 0.39 0.40 0.38 0.37
0.03 0.04 0.04 0.04 0.04 0.04 0.05 0.05 0.05 0.04 0.04 0.03 0.03 0.03 0.04 0.04 0.04 0.04 0.05 0.06 0.07 0.09 0.13 0.15 0.16 0.19 0.19 0.17 0.25 0.32 0.33 0.36 0.39 0.42 0.41 0.38 0.36 0.34 0.33 0.33 0.34 0.35 0.37
0.04 0.04 0.04 0.05 0.06 0.06 0.07 0.07 0.08 0.08 0.07 0.07 0.07 0.07 0.07 0.07 0.08 0.08 0.08 0.10 0.11 0.13 0.15 0.16 0.18 0.18 0.21 0.25 0.31 0.36 0.39 0.43 0.49 0.53 0.45 0.36 0.31 0.30 0.31 0.33 0.34 0.35 0.36